Regional Weather Roundup
Issued by NWS Grand Forks, ND

Home | Current Version | Previous Version | Graphics & Text | Print | Product List | Glossary On
Versions: 1 2 3 4 5 6 7 8 9 10 11 12 13 14 15 16 17 18 19 20 21 22 23 24 25 26 27 28 29 30 31 32 33 34 35 36 37 38 39 40 41 42 43 44 45 46 47 48 49 50
000
ASUS43 KFGF 231710
RWRFGF
PRAIRIE TO PINES  WEATHER ROUNDUP
NATIONAL WEATHER SERVICE EASTERN NORTH DAKOTA/GRAND FORKS ND
1200 PM CDT THU OCT 23 2014

 **SATELLITE DATA USED TO AUGMENT SKY COVER AT AUTOMATED STATIONS**
 *****  WEATHER ACROSS EASTERN NORTH DAKOTA  *****

CITY           SKY/WX    TMP DP  RH WIND       PRES   REMARKS
GRAND FORKS    SUNNY     63  41  44 SW9       29.85F
GRAND FRKS AFB SUNNY     64  41  43 W13       29.86S
GRAND FRKS NWS   N/A     63 N/A N/A SW9         N/A
DEVILS LAKE    SUNNY     57  37  47 SW9       29.83F
FARGO          SUNNY     57  45  64 S12       29.91F
WAHPETON ARPT  SUNNY     57  43  58 S6        29.95F
$$

 ***** WEATHER ACROSS CENTRAL AND WESTERN NORTH DAKOTA  *****

CITY           SKY/WX    TMP DP  RH WIND       PRES   REMARKS
BISMARCK       SUNNY     59  35  40 SW9       29.91S
MINOT          SUNNY     58  34  40 SW7       29.82F
JAMESTOWN      SUNNY     62  38  40 SW13      29.88F
MINOT AFB      SUNNY     60  36  41 SW10      29.81F
GARRISON         N/A     54  38  54 SW10      29.85F
WILLISTON      MOSUNNY   50  33  52 SW9       29.82F
DICKINSON      SUNNY     64  32  30 SW12      29.86F
HETTINGER      SUNNY     60  29  30 SW6       29.92F
$$

 *****  OTHER AIRPORT OBSERVATIONS IN OUR AREA  *****

CITY           SKY/WX    TMP DP  RH WIND       PRES   REMARKS
WALHALLA         N/A     59  41  51 NW5       29.82S
GRAFTON AIRPOR FAIR      59  45  58 W13       29.84S
VALLEY CITY AR FAIR      59  41  51 SW13      29.89F
CANDO          FAIR      59  39  47 W7        29.84F
CAVALIER APRT  FAIR      59  43  55 SW8       29.82S
GWINNER        SUNNY     57  46  67 SW8       29.95S
ROLLA          FAIR      61  32  33 W20G26    29.82F
 ***** THE ABOVE OBSERVATIONS ARE NON NWS ARE NOT QUALITY
       CONTROLLED AND MAY MIS-REPORT RAIN FOR SNOW...
$$

  *****  WEATHER ACROSS NORTHERN MINNESOTA  *****

CITY           SKY/WX    TMP DP  RH WIND       PRES   REMARKS
FLAG ISLAND    PTSUNNY   52  46  82 SW9       29.82R
WARROAD        MOSUNNY   57  50  77 S10       29.84S
ROSEAU         MOSUNNY   57  48  72 S10       29.84F
HALLOCK        SUNNY     57  45  62 SW9       29.83S
THF RVR FALLS  SUNNY     54  43  66 S10       29.88F
BAUDETTE       SUNNY     61  47  59 S12       29.85S
WASKISH        SUNNY     61  48  63 SW9       29.88S
CROOKSTON      SUNNY     55  46  71 S10       29.89S
STEPHEN NDAWN    N/A     57  46  67 SW10        N/A
GREENBUSH NDAW   N/A     57  45  62 SW12        N/A
$$
  *****  WEATHER ACROSS CENTRAL AND WEST MINNESOTA  *****

CITY           SKY/WX    TMP DP  RH WIND       PRES   REMARKS
FOSSTON        SUNNY     55  46  71 S9        29.91F
BEMIDJI        SUNNY     61  44  53 SW12      29.90F
PARK RAPIDS    SUNNY     56  48  74 VRB6      29.94S
ELBOW LAKE     FAIR      57  46  67 SW5       29.97S
WADENA         SUNNY     57  48  72 SW8       29.95S
DETROIT LAKES  SUNNY     57  45  62 S5        29.94F
MOORHEAD       SUNNY     55  48  76 S9        29.93F
FERGUS FALLS   SUNNY     57  43  58 S5        29.97S
MORRIS MN      SUNNY     61  48  63 SW3       29.96F
STAPLES        SUNNY     55  48  76 SW3       29.96F
$$
  *****  WEATHER ELSEWHERE ACROSS MINNESOTA  *****

CITY           SKY/WX    TMP DP  RH WIND       PRES   REMARKS
DULUTH         FOG       50  48  93 SW8       29.96S VSB 3/4
INTRNTL FALLS  MOSUNNY   60  49  66 SW10      29.88S
ELY            CLOUDY    48  46  93 SW6       29.94F
CLOQUET        CLOUDY    50  48  93 W7        29.97S FOG
WHEATON        SUNNY     61  45  55 W6        29.98S
BRAINERD       MOSUNNY   54  50  86 S7        29.97S
HIBBING        CLOUDY    52  48  86 SW6       29.95S
ALEXANDRIA     SUNNY     57  47  69 SW7       29.98S
SAINT CLOUD    CLOUDY    54  50  86 SW5       29.99F
MINNEAPOLIS    MOSUNNY   59  52  77 W7        30.00F
$$

  *****  WEATHER ACROSS SOUTH DAKOTA  *****

CITY           SKY/WX    TMP DP  RH WIND       PRES   REMARKS
SIOUX FALLS    MOSUNNY   62  50  64 SW6       30.03F
BROOKINGS      NOT AVBL
WATERTOWN      SUNNY     57  47  69 S7        30.00S
HURON          SUNNY     59  47  64 S5        29.99F
SISSETON         N/A     65  38  36 W5        29.95F
ABERDEEN       SUNNY     56  43  61 S9        29.97F
MITCHELL       SUNNY     59  51  75 S6        30.01F
PIERRE         SUNNY     57  39  51 SW7       29.96F
MOBRIDGE       SUNNY     57  42  57 S6        29.92F
RAPID CITY     PTSUNNY   56  33  42 SE5       29.96F
$$

  *****  SOME WEATHER IN NEARBY STATES *****

CITY           SKY/WX    TMP DP  RH WIND       PRES   REMARKS
GLASGOW MT     PTSUNNY   53  38  56 SE7       29.79S
GREAT FALLS MT CLOUDY    57  37  47 SW22G32   29.83R
CHEYENNE WY    CLOUDY    60  32  34 SW12G21   30.18S
SCOTTSBLUFF NE CLOUDY    56  39  53 CALM      30.08F
OMAHA NE       MOSUNNY   62  56  80 N6        30.08S
DES MOINES IA  CLOUDY    63  59  87 W6        30.05S
DAVENPORT IA   CLOUDY    56  42  59 S14       30.10F
CHICAGO IL     PTSUNNY   55  41  59 SW13G20   30.18F
EAU CLAIRE WI  CLOUDY    49  47  93 S7        30.02F
LA CROSSE WI   CLOUDY    50  46  86 S10       30.06S
$$

  *****  SOME NATIONAL WEATHER *****

CITY           SKY/WX    TMP DP  RH WIND       PRES   REMARKS
LA GUARDIA NY  LGT RAIN  51  47  86 N18G28    29.70F
RALEIGH NC     SUNNY     64  42  44 NW7       30.00F
ATLANTA GA     MOSUNNY   64  43  46 W8        30.11F
NEW ORLEANS LA MOSUNNY   71  50  47 NE12      30.11F
OKLAHOMA CITY  MOSUNNY   71  57  61 S13       30.13S
ALBUQUERQUE NM MOSUNNY   62  45  53 CALM      30.30S
SALT LAKE CITY PTSUNNY   60  32  34 E3        30.13F
LOS ANGELES CA MOSUNNY   73  57  57 CALM      30.00R
BOISE ID       LGT RAIN  55  47  74 SE12      30.05F
SEATTLE WA     LGT RAIN  51  48  89 S6        29.78R
$$

*** WEATHER ACROSS MANITOBA...SASKATCHEWAN AND ONTARIO ***
                ***ONTARIO***

CITY           SKY/WX    TMP DP  RH WIND       PRES   REMARKS
GERALDTON      LGT RAIN  45  41  87 S8        30.00F
THUNDER BAY    CLOUDY    48  46  93 E3        29.98F
SIOUX LOOKOUT  CLOUDY    50  46  87 S7        29.86F
TORONTO        SUNNY     59  41  51 N14       30.11F
BIG TROUT LK   PTSUNNY   52  41  66 S8        29.77F
PICKLE LAKE    CLOUDY    48  41  76 S8        29.85F
DRYDEN         CLOUDY    52  48  87 S17       29.84F
KENORA         NOT AVBL
$$
                *** MANITOBA***

CITY           SKY/WX    TMP DP  RH WIND       PRES   REMARKS
BRANDON        PTSUNNY   52  41  66 W9        29.79S
DAUPHIN        CLOUDY    54  46  76 W17       29.73S
ISLAND LAKE    CLOUDY    52  50  93 S6        29.67S
PILOT MOUND      N/A     59  39  47 W7          N/A
THE PAS        DRIZZLE   45  45 100 NE5       29.69F FOG
THOMPSON       LGT RAIN  37  36  93 NE13      29.73F
WINNIPEG       MOSUNNY   55  46  71 SW13G20   29.78S
LYNN LAKE      LGT RAIN  36  36 100 NE10      29.78F VSB 5/8
GILLAM         LGT RAIN  39  37  93 NE13G21   29.75F
$$
                ***SASKATCHEWAN***

CITY           SKY/WX    TMP DP  RH WIND       PRES   REMARKS
ESTEVAN        PTSUNNY   54  37  54 SW12      29.78F
KINDERSLEY     NOT AVBL
LLOYDMINSTER   MOSUNNY   54  39  58 S9        29.47S
PRINCE ALBERT  CLOUDY    45  45 100 SE13      29.63F FOG
REGINA         CLOUDY    46  41  81 SE9       29.71F
YORKTON        SUNNY     48  43  81 S5        29.72F
N. BATTLEFORD  SUNNY     48  39  71 SE13      29.56S
LA RONGE       CLOUDY    45  43  93 E10       29.66F
SASKATOON      PTSUNNY   45  39  81 S9        29.64S
SWIFT CURRENT  PTSUNNY   52  39  62 S13       29.67F
$$
NOTE: THESE ARE AUTOMATED STATIONS WITH LIMITED QUALITY CONTROL
      "FAIR" INDICATES FEW OR NO CLOUDS BELOW 12,000 FEET WITH NO
      SIGNIFICANT WEATHER AND/OR OBSTRUCTIONS TO VISIBILITY.
      SKY/WX - SKY CONDITION AND SIGNIFICANT WEATHER.
      TMP - AIR TEMPERATURE.    DP   - DEWPOINT TEMPERATURE.
      RH  - RELATIVE HUMIDITY.  PRES - PRESSURE.
      HX  - HEAT INDEX.         WCI  - WIND CHILL INDEX.
$



USA.gov is the U.S. government's official web portal to all federal, state and local government web resources and services.